When you browse on this site, cookies collect data to enhance your experience and personalize the content and advertising you see.
Visit our Privacy Policy to learn more. By continuing to use the site, you agree to this use of cookies and data.

Météo par heure à Volodarskoe

Ce jour, 23 Septembre, Mercredi

Heure Température Précipitation Vent Pression Humidité
00:00 +14°C° 0 mm 3 m/s 755 mmHg 27%
01:00 +14°C° 0 mm 3 m/s 755 mmHg 28%
02:00 +13°C° 0 mm 3 m/s 755 mmHg 27%
03:00 +13°C° 0 mm 3 m/s 755 mmHg 28%
04:00 +12°C° 0 mm 3 m/s 755 mmHg 28%
05:00 +12°C° 0 mm 4 m/s 755 mmHg 29%
06:00 +14°C° 0 mm 4 m/s 755 mmHg 27%
07:00 +17°C° 0 mm 4 m/s 755 mmHg 25%
08:00 +19°C° 0 mm 5 m/s 755 mmHg 23%
09:00 +21°C° 0 mm 5 m/s 754 mmHg 22%
10:00 +23°C° 0 mm 5 m/s 754 mmHg 21%
11:00 +26°C° 0 mm 5 m/s 754 mmHg 20%
12:00 +26°C° 0 mm 4 m/s 754 mmHg 20%
13:00 +27°C° 0 mm 4 m/s 753 mmHg 21%
14:00 +27°C° 0 mm 4 m/s 753 mmHg 21%
15:00 +26°C° 0 mm 3 m/s 752 mmHg 23%
16:00 +25°C° 0 mm 3 m/s 752 mmHg 26%
17:00 +24°C° 0 mm 2 m/s 752 mmHg 28%
18:00 +23°C° 0 mm 2 m/s 752 mmHg 29%
19:00 +21°C° 0 mm 3 m/s 752 mmHg 31%
20:00 +19°C° 0 mm 3 m/s 752 mmHg 32%
21:00 +19°C° 0 mm 3 m/s 752 mmHg 32%
22:00 +18°C° 0 mm 4 m/s 752 mmHg 32%
23:00 +18°C° 0 mm 4 m/s 751 mmHg 33%

Demain, 24 Septembre, Jeudi

Heure Température Précipitation Vent Pression Humidité
00:00 +17°C° 0 mm 4 m/s 751 mmHg 34%
01:00 +17°C° 0 mm 4 m/s 752 mmHg 36%
02:00 +15°C° 0 mm 4 m/s 752 mmHg 38%
03:00 +15°C° 0 mm 4 m/s 752 mmHg 41%
04:00 +14°C° 0 mm 4 m/s 751 mmHg 45%
05:00 +14°C° 0 mm 4 m/s 751 mmHg 49%
06:00 +17°C° 0 mm 4 m/s 751 mmHg 47%
07:00 +19°C° 0 mm 4 m/s 752 mmHg 46%
08:00 +21°C° 0 mm 5 m/s 752 mmHg 44%
09:00 +22°C° 0 mm 5 m/s 752 mmHg 42%
10:00 +25°C° 0 mm 5 m/s 752 mmHg 40%
11:00 +27°C° 0 mm 6 m/s 751 mmHg 38%
12:00 +27°C° 0 mm 5 m/s 751 mmHg 35%
13:00 +28°C° 0 mm 5 m/s 751 mmHg 33%
14:00 +28°C° 0 mm 5 m/s 751 mmHg 30%
15:00 +27°C° 0 mm 4 m/s 751 mmHg 31%
16:00 +26°C° 0 mm 4 m/s 751 mmHg 33%
17:00 +25°C° 0 mm 3 m/s 750 mmHg 35%
18:00 +23°C° 0 mm 4 m/s 751 mmHg 37%
19:00 +22°C° 0 mm 4 m/s 751 mmHg 39%
20:00 +21°C° 0 mm 4 m/s 751 mmHg 41%
21:00 +20°C° 0 mm 4 m/s 751 mmHg 43%
22:00 +20°C° 0 mm 4 m/s 751 mmHg 44%
23:00 +19°C° 0 mm 4 m/s 750 mmHg 46%

Après-demain, 25 Septembre, Vendredi

Heure Température Précipitation Vent Pression Humidité
00:00 +19°C° 0 mm 4 m/s 750 mmHg 47%
01:00 +18°C° 0 mm 4 m/s 750 mmHg 49%
02:00 +18°C° 0 mm 4 m/s 750 mmHg 51%
03:00 +17°C° 0 mm 4 m/s 750 mmHg 54%
04:00 +17°C° 0 mm 4 m/s 750 mmHg 57%
05:00 +15°C° 0 mm 5 m/s 750 mmHg 60%
06:00 +17°C° 0 mm 5 m/s 750 mmHg 56%
07:00 +19°C° 0 mm 5 m/s 750 mmHg 51%
08:00 +21°C° 0 mm 6 m/s 750 mmHg 47%
09:00 +22°C° 0 mm 6 m/s 750 mmHg 43%
10:00 +24°C° 0 mm 6 m/s 750 mmHg 39%
11:00 +26°C° 0 mm 7 m/s 750 mmHg 35%
12:00 +27°C° 0 mm 6 m/s 749 mmHg 36%
13:00 +27°C° 0 mm 6 m/s 749 mmHg 37%
14:00 +28°C° 0 mm 5 m/s 749 mmHg 37%
15:00 +27°C° 0 mm 5 m/s 749 mmHg 38%
16:00 +26°C° 0 mm 4 m/s 748 mmHg 40%
17:00 +25°C° 0 mm 4 m/s 748 mmHg 41%
18:00 +23°C° 0 mm 4 m/s 748 mmHg 41%
19:00 +22°C° 0 mm 4 m/s 748 mmHg 41%
20:00 +21°C° 0 mm 4 m/s 748 mmHg 41%
21:00 +21°C° 0 mm 5 m/s 748 mmHg 42%
22:00 +20°C° 0 mm 5 m/s 748 mmHg 44%
23:00 +19°C° 0 mm 5 m/s 747 mmHg 45%

26 Septembre, Samedi

Heure Température Précipitation Vent Pression Humidité
00:00 +19°C° 0 mm 5 m/s 747 mmHg 45%
01:00 +19°C° 0 mm 5 m/s 747 mmHg 44%
02:00 +17°C° 0 mm 5 m/s 747 mmHg 44%
03:00 +17°C° 0 mm 5 m/s 747 mmHg 46%
04:00 +16°C° 0 mm 5 m/s 747 mmHg 48%
05:00 +16°C° 0 mm 5 m/s 747 mmHg 50%
06:00 +17°C° 0 mm 6 m/s 747 mmHg 47%
07:00 +20°C° 0 mm 6 m/s 747 mmHg 45%
08:00 +21°C° 0 mm 7 m/s 747 mmHg 42%
09:00 +23°C° 0 mm 7 m/s 747 mmHg 38%
10:00 +24°C° 0 mm 7 m/s 747 mmHg 35%
11:00 +27°C° 0 mm 7 m/s 747 mmHg 31%
12:00 +28°C° 0 mm 7 m/s 747 mmHg 28%
13:00 +28°C° 0 mm 7 m/s 747 mmHg 25%
14:00 +29°C° 0 mm 7 m/s 747 mmHg 21%
15:00 +29°C° 0 mm 6 m/s 746 mmHg 22%
16:00 +28°C° 0 mm 6 m/s 746 mmHg 24%
17:00 +27°C° 0 mm 5 m/s 746 mmHg 25%
18:00 +26°C° 0 mm 7 m/s 747 mmHg 31%
19:00 +24°C° 0 mm 8 m/s 747 mmHg 36%
20:00 +23°C° 0 mm 10 m/s 747 mmHg 42%
21:00 +22°C° 0 mm 10 m/s 747 mmHg 46%
22:00 +21°C° 0 mm 9 m/s 747 mmHg 50%
23:00 +18°C° 0 mm 9 m/s 747 mmHg 54%

27 Septembre, Dimanche

Heure Température Précipitation Vent Pression Humidité
00:00 +18°C° 0 mm 9 m/s 747 mmHg 54%
01:00 +18°C° 0 mm 9 m/s 747 mmHg 53%
02:00 +17°C° 0 mm 9 m/s 747 mmHg 53%
03:00 +17°C° 0 mm 9 m/s 747 mmHg 55%
04:00 +16°C° 0 mm 9 m/s 747 mmHg 57%
05:00 +16°C° 0 mm 9 m/s 748 mmHg 59%
06:00 +17°C° 0 mm 10 m/s 748 mmHg 56%
07:00 +17°C° 0 mm 10 m/s 748 mmHg 53%
08:00 +18°C° 0 mm 11 m/s 748 mmHg 51%
09:00 +21°C° 0 mm 10 m/s 748 mmHg 47%
10:00 +22°C° 0 mm 10 m/s 747 mmHg 43%
11:00 +24°C° 0 mm 10 m/s 747 mmHg 39%
12:00 +26°C° 0 mm 9 m/s 747 mmHg 37%
13:00 +27°C° 0 mm 9 m/s 747 mmHg 36%
14:00 +28°C° 0 mm 8 m/s 747 mmHg 34%
15:00 +27°C° 0.1 mm 7 m/s 747 mmHg 38%
16:00 +27°C° 0.1 mm 6 m/s 747 mmHg 41%
17:00 +26°C° 0.1 mm 5 m/s 747 mmHg 44%
18:00 +25°C° 0.2 mm 5 m/s 747 mmHg 48%
19:00 +23°C° 0.2 mm 6 m/s 747 mmHg 51%
20:00 +22°C° 0.2 mm 6 m/s 748 mmHg 54%
21:00 +22°C° 0.2 mm 6 m/s 748 mmHg 55%
22:00 +21°C° 0.2 mm 6 m/s 748 mmHg 55%
23:00 +20°C° 0.2 mm 6 m/s 748 mmHg 56%

28 Septembre, Lundi

Heure Température Précipitation Vent Pression Humidité
00:00 +20°C° 0.3 mm 7 m/s 749 mmHg 59%
01:00 +18°C° 0.3 mm 7 m/s 749 mmHg 61%
02:00 +18°C° 0.3 mm 7 m/s 749 mmHg 64%
03:00 +17°C° 0.2 mm 7 m/s 749 mmHg 66%
04:00 +16°C° 0.2 mm 7 m/s 749 mmHg 69%
05:00 +16°C° 0.2 mm 6 m/s 749 mmHg 71%
06:00 +16°C° 0.4 mm 6 m/s 749 mmHg 72%
07:00 +16°C° 0.4 mm 6 m/s 749 mmHg 73%
08:00 +16°C° 0.4 mm 6 m/s 749 mmHg 74%
09:00 +17°C° 0.1 mm 5 m/s 749 mmHg 70%
10:00 +19°C° 0.1 mm 5 m/s 749 mmHg 67%
11:00 +20°C° 0.1 mm 5 m/s 749 mmHg 63%
12:00 +20°C° 0 mm 4 m/s 749 mmHg 59%
13:00 +21°C° 0 mm 4 m/s 749 mmHg 56%
14:00 +22°C° 0 mm 3 m/s 749 mmHg 53%
15:00 +21°C° 0 mm 3 m/s 749 mmHg 58%
16:00 +20°C° 0 mm 3 m/s 749 mmHg 63%
17:00 +19°C° 0 mm 3 m/s 749 mmHg 68%
18:00 +18°C° 0.1 mm 4 m/s 749 mmHg 71%
19:00 +16°C° 0.1 mm 5 m/s 749 mmHg 75%
20:00 +15°C° 0.1 mm 6 m/s 750 mmHg 78%
21:00 +15°C° 0 mm 5 m/s 750 mmHg 80%
22:00 +14°C° 0 mm 4 m/s 750 mmHg 82%
23:00 +13°C° 0 mm 3 m/s 751 mmHg 85%
Voir plus